Time,TemperatureF,DewpointF,PressureIn,WindDirection,WindDirectionDegrees,WindSpeedMPH,WindSpeedGustMPH,Humidity,HourlyPrecipIn,Conditions,Clouds,dailyrainin,SoftwareType,DateUTC
2013-03-01 00:03:00,50.6,47.2,30.40,NW,306,1.2,1.2,88,0.00,CLR,FEW,0.00,WeatherDisplay:10.37,2013-03-01 08:03:00,
2013-03-01 00:09:00,50.4,47.3,30.40,NW,306,0.0,0.0,89,0.00,CLR,FEW,0.00,WeatherDisplay:10.37,2013-03-01 08:09:00,
2013-03-01 00:14:00,50.3,46.9,30.42,NW,306,0.0,0.0,88,0.00,CLR,FEW,0.00,WeatherDisplay:10.37,2013-03-01 08:14:00,
2013-03-01 00:19:00,50.3,46.9,30.40,NW,306,0.0,0.0,88,0.00,CLR,FEW,0.00,WeatherDisplay:10.37,2013-03-01 08:19:00,
2013-03-01 00:24:00,50.2,46.8,30.39,NW,306,0.0,0.0,88,0.00,CLR,FEW,0.00,WeatherDisplay:10.37,2013-03-01 08:24:00,
2013-03-01 00:30:00,50.1,47.0,30.41,NW,306,0.0,0.0,89,0.00,CLR,FEW,0.00,WeatherDisplay:10.37,2013-03-01 08:30:00,
2013-03-01 00:35:00,50.1,46.7,30.39,NW,306,0.0,0.0,88,0.00,CLR,FEW,0.00,WeatherDisplay:10.37,2013-03-01 08:35:00,
2013-03-01 00:40:00,50.0,46.9,30.39,NW,306,0.0,0.0,89,0.00,CLR,FEW,0.00,WeatherDisplay:10.37,2013-03-01 08:40:00,
2013-03-01 00:45:00,49.9,46.8,30.39,NW,306,0.0,0.0,89,0.00,CLR,FEW,0.00,WeatherDisplay:10.37,2013-03-01 08:45:00,
2013-03-01 00:51:00,49.8,46.7,30.39,NW,306,0.0,0.0,89,0.00,CLR,FEW,0.00,WeatherDisplay:10.37,2013-03-01 08:51:00,
2013-03-01 00:56:00,49.7,46.6,30.39,NW,306,0.0,0.0,89,0.00,CLR,FEW,0.00,WeatherDisplay:10.37,2013-03-01 08:56:00,
2013-03-01 01:01:00,49.6,46.2,30.41,NW,306,0.0,0.0,88,0.00,CLR,FEW,0.00,WeatherDisplay:10.37,2013-03-01 09:01:00,
2013-03-01 01:06:00,49.5,46.1,30.39,NW,306,0.0,0.0,88,0.00,CLR,FEW,0.00,WeatherDisplay:10.37,2013-03-01 09:06:00,
2013-03-01 01:11:00,49.4,46.0,30.39,NW,306,0.0,0.0,88,0.00,CLR,FEW,0.00,WeatherDisplay:10.37,2013-03-01 09:11:00,
2013-03-01 01:17:00,49.2,46.1,30.41,NW,306,0.0,0.0,89,0.00,CLR,FEW,0.00,WeatherDisplay:10.37,2013-03-01 09:17:00,
2013-03-01 01:22:00,49.2,46.1,30.39,NW,306,0.0,0.0,89,0.00,CLR,FEW,0.00,WeatherDisplay:10.37,2013-03-01 09:22:00,
2013-03-01 01:27:00,49.1,46.0,30.39,NW,306,0.0,0.0,89,0.00,CLR,FEW,0.00,WeatherDisplay:10.37,2013-03-01 09:27:00,
2013-03-01 01:32:00,49.0,45.9,30.39,NW,306,0.0,0.0,89,0.00,CLR,FEW,0.00,WeatherDisplay:10.37,2013-03-01 09:32:00,
2013-03-01 01:38:00,48.8,45.7,30.39,NW,306,0.0,0.0,89,0.00,CLR,FEW,0.00,WeatherDisplay:10.37,2013-03-01 09:38:00,
2013-03-01 01:43:00,48.7,45.6,30.41,NW,306,0.0,0.0,89,0.00,CLR,FEW,0.00,WeatherDisplay:10.37,2013-03-01 09:43:00,
2013-03-01 01:48:00,48.7,45.6,30.39,NW,306,0.0,0.0,89,0.00,CLR,FEW,0.00,WeatherDisplay:10.37,2013-03-01 09:48:00,
2013-03-01 01:53:00,48.6,45.5,30.39,NW,306,0.0,0.0,89,0.00,CLR,FEW,0.00,WeatherDisplay:10.37,2013-03-01 09:53:00,
2013-03-01 01:58:00,48.5,45.4,30.41,NW,306,0.0,0.0,89,0.00,CLR,FEW,0.00,WeatherDisplay:10.37,2013-03-01 09:58:00,
2013-03-01 02:04:00,48.4,45.3,30.39,NW,306,0.0,0.0,89,0.00,CLR,FEW,0.00,WeatherDisplay:10.37,2013-03-01 10:04:00,
2013-03-01 02:09:00,48.3,45.2,30.39,NW,306,0.0,0.0,89,0.00,CLR,FEW,0.00,WeatherDisplay:10.37,2013-03-01 10:09:00,
2013-03-01 02:14:00,48.3,45.2,30.39,NW,306,0.0,0.0,89,0.00,CLR,FEW,0.00,WeatherDisplay:10.37,2013-03-01 10:14:00,
2013-03-01 02:19:00,48.2,45.1,30.39,NW,306,0.0,0.0,89,0.00,CLR,FEW,0.00,WeatherDisplay:10.37,2013-03-01 10:19:00,
2013-03-01 02:24:00,48.1,45.0,30.39,NW,306,0.0,0.0,89,0.00,CLR,FEW,0.00,WeatherDisplay:10.37,2013-03-01 10:24:00,
2013-03-01 02:30:00,48.1,45.0,30.39,NW,306,0.0,0.0,89,0.00,CLR,FEW,0.00,WeatherDisplay:10.37,2013-03-01 10:30:00,
2013-03-01 02:35:00,47.9,44.8,30.39,NW,306,0.0,0.0,89,0.00,CLR,FEW,0.00,WeatherDisplay:10.37,2013-03-01 10:35:00,
2013-03-01 02:40:00,47.9,44.8,30.39,NW,306,0.0,0.0,89,0.00,CLR,FEW,0.00,WeatherDisplay:10.37,2013-03-01 10:40:00,
2013-03-01 02:45:00,47.8,44.7,30.38,NW,306,0.0,0.0,89,0.00,CLR,FEW,0.00,WeatherDisplay:10.37,2013-03-01 10:45:00,
2013-03-01 02:51:00,47.8,44.7,30.38,NW,306,0.0,0.0,89,0.00,CLR,FEW,0.00,WeatherDisplay:10.37,2013-03-01 10:51:00,
2013-03-01 02:56:00,47.7,44.9,30.38,NW,306,0.0,0.0,90,0.00,CLR,FEW,0.00,WeatherDisplay:10.37,2013-03-01 10:56:00,
2013-03-01 03:01:00,47.6,44.8,30.39,NW,306,0.0,0.0,90,0.00,CLR,FEW,0.00,WeatherDisplay:10.37,2013-03-01 11:01:00,
2013-03-01 03:06:00,47.5,44.7,30.40,NW,306,0.0,0.0,90,0.00,CLR,FEW,0.00,WeatherDisplay:10.37,2013-03-01 11:06:00,
2013-03-01 03:11:00,47.4,44.3,30.39,NW,306,0.0,0.0,89,0.00,CLR,FEW,0.00,WeatherDisplay:10.37,2013-03-01 11:11:00,
2013-03-01 03:16:00,47.3,44.5,30.39,NW,306,0.0,0.0,90,0.00,CLR,FEW,0.00,WeatherDisplay:10.37,2013-03-01 11:16:00,
2013-03-01 03:21:00,47.3,44.5,30.40,NW,306,0.0,0.0,90,0.00,CLR,FEW,0.00,WeatherDisplay:10.37,2013-03-01 11:21:00,
2013-03-01 03:27:00,47.3,44.5,30.39,NW,306,2.3,2.3,90,0.00,CLR,FEW,0.00,WeatherDisplay:10.37,2013-03-01 11:27:00,
2013-03-01 03:32:00,47.4,44.6,30.38,NW,306,0.0,0.0,90,0.00,CLR,FEW,0.00,WeatherDisplay:10.37,2013-03-01 11:32:00,
2013-03-01 03:37:00,47.4,44.6,30.38,NW,306,0.0,0.0,90,0.00,CLR,FEW,0.00,WeatherDisplay:10.37,2013-03-01 11:37:00,
2013-03-01 03:42:00,47.3,44.5,30.39,NW,306,1.0,0.0,90,0.00,CLR,FEW,0.00,WeatherDisplay:10.37,2013-03-01 11:42:00,
2013-03-01 03:48:00,47.3,44.5,30.39,NW,306,0.0,0.0,90,0.00,CLR,FEW,0.00,WeatherDisplay:10.37,2013-03-01 11:48:00,
2013-03-01 03:53:00,47.2,44.4,30.40,NW,306,0.0,0.0,90,0.00,CLR,FEW,0.00,WeatherDisplay:10.37,2013-03-01 11:53:00,
2013-03-01 03:58:00,47.2,44.4,30.38,NW,306,1.2,0.0,90,0.00,CLR,FEW,0.00,WeatherDisplay:10.37,2013-03-01 11:58:00,
2013-03-01 04:04:00,47.2,44.4,30.38,NW,306,0.0,0.0,90,0.00,CLR,FEW,0.00,WeatherDisplay:10.37,2013-03-01 12:04:00,
2013-03-01 04:09:00,47.1,44.3,30.38,NW,306,0.0,0.0,90,0.00,CLR,FEW,0.00,WeatherDisplay:10.37,2013-03-01 12:09:00,
2013-03-01 04:14:00,47.1,44.3,30.40,NW,306,0.0,0.0,90,0.00,CLR,FEW,0.00,WeatherDisplay:10.37,2013-03-01 12:14:00,
2013-03-01 04:19:00,47.1,44.3,30.38,NW,306,0.0,0.0,90,0.00,CLR,FEW,0.00,WeatherDisplay:10.37,2013-03-01 12:19:00,
2013-03-01 04:25:00,47.2,44.4,30.38,NW,306,0.0,0.0,90,0.00,CLR,FEW,0.00,WeatherDisplay:10.37,2013-03-01 12:25:00,
2013-03-01 04:30:00,47.2,44.7,30.39,NW,306,0.0,0.0,91,0.00,CLR,FEW,0.00,WeatherDisplay:10.37,2013-03-01 12:30:00,
2013-03-01 04:35:00,47.2,44.4,30.38,NW,306,0.0,0.0,90,0.00,CLR,FEW,0.00,WeatherDisplay:10.37,2013-03-01 12:35:00,
2013-03-01 04:40:00,47.1,44.3,30.38,NW,306,0.0,0.0,90,0.00,CLR,FEW,0.00,WeatherDisplay:10.37,2013-03-01 12:40:00,
2013-03-01 04:45:00,47.0,44.5,30.38,NW,306,1.2,0.0,91,0.00,CLR,FEW,0.00,WeatherDisplay:10.37,2013-03-01 12:45:00,
2013-03-01 04:51:00,47.0,44.2,30.38,NW,306,0.0,0.0,90,0.00,CLR,FEW,0.00,WeatherDisplay:10.37,2013-03-01 12:51:00,
2013-03-01 04:56:00,47.0,44.2,30.39,NW,306,0.0,0.0,90,0.00,CLR,FEW,0.00,WeatherDisplay:10.37,2013-03-01 12:56:00,
2013-03-01 05:01:00,47.0,44.2,30.39,NW,306,0.0,0.0,90,0.00,CLR,FEW,0.00,WeatherDisplay:10.37,2013-03-01 13:01:00,
2013-03-01 05:06:00,47.0,44.5,30.39,NW,306,0.0,0.0,91,0.00,CLR,FEW,0.00,WeatherDisplay:10.37,2013-03-01 13:06:00,
2013-03-01 05:11:00,46.9,44.1,30.38,NW,306,0.0,0.0,90,0.00,CLR,FEW,0.00,WeatherDisplay:10.37,2013-03-01 13:11:00,
2013-03-01 05:16:00,47.0,44.5,30.38,NW,306,0.0,0.0,91,0.00,CLR,FEW,0.00,WeatherDisplay:10.37,2013-03-01 13:16:00,
2013-03-01 05:22:00,46.9,44.1,30.38,NW,306,0.0,0.0,90,0.00,CLR,FEW,0.00,WeatherDisplay:10.37,2013-03-01 13:22:00,
2013-03-01 05:27:00,46.9,44.4,30.38,NW,306,0.0,0.0,91,0.00,CLR,FEW,0.00,WeatherDisplay:10.37,2013-03-01 13:27:00,
2013-03-01 05:32:00,46.8,44.3,30.38,NW,306,0.0,0.0,91,0.00,CLR,FEW,0.00,WeatherDisplay:10.37,2013-03-01 13:32:00,
2013-03-01 05:37:00,46.8,44.3,30.37,NW,306,0.0,0.0,91,0.00,CLR,FEW,0.00,WeatherDisplay:10.37,2013-03-01 13:37:00,
2013-03-01 05:42:00,46.7,44.2,30.38,NW,306,0.0,0.0,91,0.00,CLR,FEW,0.00,WeatherDisplay:10.37,2013-03-01 13:42:00,
2013-03-01 05:48:00,46.7,44.2,30.37,NW,306,1.2,0.0,91,0.00,CLR,FEW,0.00,WeatherDisplay:10.37,2013-03-01 13:48:00,
2013-03-01 05:53:00,46.7,44.2,30.39,NW,306,0.0,0.0,91,0.00,CLR,FEW,0.00,WeatherDisplay:10.37,2013-03-01 13:53:00,
2013-03-01 05:58:00,46.7,44.2,30.38,NW,306,0.0,0.0,91,0.00,CLR,FEW,0.00,WeatherDisplay:10.37,2013-03-01 13:58:00,
2013-03-01 06:03:00,46.8,44.3,30.37,NW,306,0.0,0.0,91,0.00,CLR,FEW,0.00,WeatherDisplay:10.37,2013-03-01 14:03:00,
2013-03-01 06:09:00,46.9,44.4,30.37,NW,306,0.0,0.0,91,0.00,CLR,FEW,0.00,WeatherDisplay:10.37,2013-03-01 14:09:00,
2013-03-01 06:14:00,46.9,44.4,30.38,NW,306,0.0,0.0,91,0.00,CLR,FEW,0.00,WeatherDisplay:10.37,2013-03-01 14:14:00,
2013-03-01 06:19:00,46.8,44.3,30.38,NW,306,0.0,0.0,91,0.00,CLR,FEW,0.00,WeatherDisplay:10.37,2013-03-01 14:19:00,
2013-03-01 06:24:00,46.7,44.2,30.39,NW,306,0.0,0.0,91,0.00,CLR,FEW,0.00,WeatherDisplay:10.37,2013-03-01 14:24:00,
2013-03-01 06:30:00,46.7,44.2,30.37,NW,306,1.2,0.0,91,0.00,CLR,FEW,0.00,WeatherDisplay:10.37,2013-03-01 14:30:00,
2013-03-01 06:35:00,46.9,44.7,30.37,NW,306,0.0,0.0,92,0.00,CLR,FEW,0.00,WeatherDisplay:10.37,2013-03-01 14:35:00,
2013-03-01 06:40:00,47.2,45.0,30.37,NW,306,1.2,1.2,92,0.00,CLR,FEW,0.00,WeatherDisplay:10.37,2013-03-01 14:40:00,
2013-03-01 06:45:00,47.3,45.1,30.37,NW,306,0.0,0.0,92,0.00,CLR,FEW,0.00,WeatherDisplay:10.37,2013-03-01 14:45:00,
2013-03-01 06:50:00,47.3,45.1,30.37,NW,306,0.0,0.0,92,0.00,CLR,FEW,0.00,WeatherDisplay:10.37,2013-03-01 14:50:00,
2013-03-01 06:56:00,47.4,45.2,30.39,NW,306,0.0,0.0,92,0.00,CLR,FEW,0.00,WeatherDisplay:10.37,2013-03-01 14:56:00,
2013-03-01 07:01:00,47.4,45.2,30.37,NW,306,0.0,0.0,92,0.00,CLR,FEW,0.00,WeatherDisplay:10.37,2013-03-01 15:01:00,
2013-03-01 07:06:00,47.4,45.2,30.37,NW,306,0.0,0.0,92,0.00,CLR,FEW,0.00,WeatherDisplay:10.37,2013-03-01 15:06:00,
2013-03-01 07:11:00,47.5,45.3,30.36,NW,306,0.0,0.0,92,0.00,CLR,FEW,0.00,WeatherDisplay:10.37,2013-03-01 15:11:00,
2013-03-01 07:16:00,47.6,45.4,30.36,NW,306,0.0,0.0,92,0.00,CLR,FEW,0.00,WeatherDisplay:10.37,2013-03-01 15:16:00,
2013-03-01 07:22:00,47.7,45.5,30.36,NW,306,0.0,0.0,92,0.00,CLR,FEW,0.00,WeatherDisplay:10.37,2013-03-01 15:22:00,
2013-03-01 07:27:00,47.8,45.9,30.36,NW,306,0.0,0.0,93,0.00,CLR,FEW,0.00,WeatherDisplay:10.37,2013-03-01 15:27:00,
2013-03-01 07:32:00,48.0,46.1,30.37,NW,306,0.0,0.0,93,0.00,CLR,FEW,0.00,WeatherDisplay:10.37,2013-03-01 15:32:00,
2013-03-01 07:37:00,48.3,46.4,30.36,NW,306,0.0,0.0,93,0.00,CLR,FEW,0.00,WeatherDisplay:10.37,2013-03-01 15:37:00,
2013-03-01 07:43:00,48.4,46.5,30.36,NW,306,0.0,0.0,93,0.00,CLR,FEW,0.00,WeatherDisplay:10.37,2013-03-01 15:43:00,
2013-03-01 07:48:00,48.5,46.6,30.38,NW,306,0.0,0.0,93,0.00,CLR,FEW,0.00,WeatherDisplay:10.37,2013-03-01 15:48:00,
2013-03-01 07:53:00,48.7,46.8,30.36,NW,306,0.0,0.0,93,0.00,CLR,FEW,0.00,WeatherDisplay:10.37,2013-03-01 15:53:00,
2013-03-01 07:58:00,48.8,46.9,30.36,NW,306,1.2,0.0,93,0.00,CLR,FEW,0.00,WeatherDisplay:10.37,2013-03-01 15:58:00,
2013-03-01 08:03:00,49.0,47.1,30.36,NW,306,2.3,2.3,93,0.00,CLR,FEW,0.00,WeatherDisplay:10.37,2013-03-01 16:03:00,
2013-03-01 08:09:00,49.1,46.9,30.35,NW,306,1.2,1.2,92,0.00,CLR,FEW,0.00,WeatherDisplay:10.37,2013-03-01 16:09:00,
2013-03-01 08:14:00,49.2,47.3,30.35,NW,306,4.0,4.0,93,0.00,CLR,FEW,0.00,WeatherDisplay:10.37,2013-03-01 16:14:00,
2013-03-01 08:19:00,49.3,47.4,30.37,NW,306,4.6,4.6,93,0.00,CLR,FEW,0.00,WeatherDisplay:10.37,2013-03-01 16:19:00,
2013-03-01 08:24:00,49.2,47.3,30.35,NW,306,1.2,1.2,93,0.00,CLR,FEW,0.00,WeatherDisplay:10.37,2013-03-01 16:24:00,
2013-03-01 08:29:00,49.5,47.6,30.35,NW,306,1.2,1.2,93,0.00,CLR,FEW,0.00,WeatherDisplay:10.37,2013-03-01 16:29:00,
2013-03-01 08:34:00,49.6,47.7,30.36,NW,306,1.2,0.0,93,0.00,CLR,FEW,0.00,WeatherDisplay:10.37,2013-03-01 16:34:00,
2013-03-01 08:40:00,49.7,47.8,30.34,NW,306,1.2,0.0,93,0.00,CLR,FEW,0.00,WeatherDisplay:10.37,2013-03-01 16:40:00,
2013-03-01 08:45:00,49.8,47.9,30.34,NW,306,1.2,1.2,93,0.00,CLR,FEW,0.00,WeatherDisplay:10.37,2013-03-01 16:45:00,
2013-03-01 08:50:00,49.9,48.0,30.36,NW,306,0.0,0.0,93,0.00,CLR,FEW,0.00,WeatherDisplay:10.37,2013-03-01 16:50:00,
2013-03-01 08:55:00,50.1,48.2,30.34,NW,306,1.2,0.0,93,0.00,CLR,FEW,0.00,WeatherDisplay:10.37,2013-03-01 16:55:00,
2013-03-01 09:01:00,50.1,48.2,30.34,NW,306,2.3,2.3,93,0.00,CLR,FEW,0.00,WeatherDisplay:10.37,2013-03-01 17:01:00,
2013-03-01 09:06:00,50.3,48.4,30.36,NW,306,0.0,0.0,93,0.00,CLR,FEW,0.00,WeatherDisplay:10.37,2013-03-01 17:06:00,
2013-03-01 09:11:00,50.7,48.7,30.35,NW,306,2.3,2.3,93,0.00,CLR,FEW,0.00,WeatherDisplay:10.37,2013-03-01 17:11:00,
2013-03-01 09:16:00,51.0,49.3,30.36,NW,306,3.5,3.5,94,0.00,CLR,FEW,0.00,WeatherDisplay:10.37,2013-03-01 17:16:00,
2013-03-01 09:21:00,51.0,49.0,30.34,NW,306,3.5,3.5,93,0.00,CLR,FEW,0.00,WeatherDisplay:10.37,2013-03-01 17:21:00,
2013-03-01 09:27:00,51.3,49.3,30.34,NW,306,4.0,4.0,93,0.00,CLR,FEW,0.00,WeatherDisplay:10.37,2013-03-01 17:27:00,
2013-03-01 09:32:00,51.7,50.0,30.36,NW,306,1.2,1.2,94,0.00,CLR,FEW,0.00,WeatherDisplay:10.37,2013-03-01 17:32:00,
2013-03-01 09:37:00,52.1,50.4,30.35,NW,306,2.3,2.3,94,0.00,CLR,FEW,0.00,WeatherDisplay:10.37,2013-03-01 17:37:00,
2013-03-01 09:42:00,52.3,50.3,30.35,NW,306,2.3,2.3,93,0.00,CLR,FEW,0.00,WeatherDisplay:10.37,2013-03-01 17:42:00,
2013-03-01 09:48:00,52.5,50.5,30.36,NW,306,3.5,3.5,93,0.00,CLR,FEW,0.00,WeatherDisplay:10.37,2013-03-01 17:48:00,
2013-03-01 09:53:00,52.8,50.8,30.34,NW,306,2.3,2.3,93,0.00,CLR,FEW,0.00,WeatherDisplay:10.37,2013-03-01 17:53:00,
2013-03-01 09:58:00,53.2,51.2,30.36,NW,306,2.3,2.3,93,0.00,CLR,FEW,0.00,WeatherDisplay:10.37,2013-03-01 17:58:00,
2013-03-01 10:03:00,53.6,51.6,30.34,NW,306,4.6,4.6,93,0.00,CLR,FEW,0.00,WeatherDisplay:10.37,2013-03-01 18:03:00,
2013-03-01 10:09:00,54.1,52.1,30.34,NW,306,1.2,1.2,93,0.00,CLR,FEW,0.00,WeatherDisplay:10.37,2013-03-01 18:09:00,
2013-03-01 10:14:00,54.8,52.8,30.35,NW,317,5.0,5.0,93,0.00,CLR,FEW,0.00,WeatherDisplay:10.37,2013-03-01 18:14:00,
2013-03-01 10:19:00,55.3,53.0,30.34,NW,319,3.5,3.9,92,0.00,CLR,FEW,0.00,WeatherDisplay:10.37,2013-03-01 18:19:00,
2013-03-01 10:24:00,55.6,53.0,30.35,NNW,334,3.5,3.5,91,0.00,CLR,FEW,0.00,WeatherDisplay:10.37,2013-03-01 18:24:00,
2013-03-01 10:29:00,56.2,53.6,30.33,WNW,298,4.6,4.6,91,0.00,CLR,FEW,0.00,WeatherDisplay:10.37,2013-03-01 18:29:00,
2013-03-01 10:35:00,56.6,53.7,30.33,West,271,5.0,5.0,90,0.00,CLR,FEW,0.00,WeatherDisplay:10.37,2013-03-01 18:35:00,
2013-03-01 10:40:00,56.9,53.7,30.35,West,262,4.6,4.6,89,0.00,CLR,FEW,0.00,WeatherDisplay:10.37,2013-03-01 18:40:00,
2013-03-01 10:45:00,57.3,53.5,30.33,WSW,252,6.0,6.0,87,0.00,CLR,FEW,0.00,WeatherDisplay:10.37,2013-03-01 18:45:00,
2013-03-01 10:50:00,57.4,53.2,30.33,WNW,287,6.9,6.9,86,0.00,CLR,FEW,0.00,WeatherDisplay:10.37,2013-03-01 18:50:00,
2013-03-01 10:55:00,57.8,53.3,30.35,West,273,4.0,4.0,85,0.00,CLR,FEW,0.00,WeatherDisplay:10.37,2013-03-01 18:55:00,
2013-03-01 11:01:00,58.3,53.5,30.33,West,265,4.6,4.6,84,0.00,CLR,FEW,0.00,WeatherDisplay:10.37,2013-03-01 19:01:00,
2013-03-01 11:06:00,58.7,53.5,30.33,West,266,3.5,3.5,83,0.00,CLR,FEW,0.00,WeatherDisplay:10.37,2013-03-01 19:06:00,
2013-03-01 11:11:00,59.2,53.4,30.33,WSW,258,4.6,4.6,81,0.00,CLR,FEW,0.00,WeatherDisplay:10.37,2013-03-01 19:11:00,
2013-03-01 11:16:00,59.5,53.0,30.33,West,269,5.8,5.8,79,0.00,CLR,FEW,0.00,WeatherDisplay:10.37,2013-03-01 19:16:00,
2013-03-01 11:22:00,59.8,52.9,30.33,WNW,296,5.0,5.0,78,0.00,CLR,FEW,0.00,WeatherDisplay:10.37,2013-03-01 19:22:00,
2013-03-01 11:27:00,60.4,53.2,30.32,West,281,7.0,7.0,77,0.00,CLR,FEW,0.00,WeatherDisplay:10.37,2013-03-01 19:27:00,
2013-03-01 11:32:00,60.6,53.0,30.32,West,274,5.0,5.0,76,0.00,CLR,FEW,0.00,WeatherDisplay:10.37,2013-03-01 19:32:00,
2013-03-01 11:37:00,60.9,52.9,30.34,West,277,7.0,7.0,75,0.00,CLR,FEW,0.00,WeatherDisplay:10.37,2013-03-01 19:37:00,
2013-03-01 11:42:00,61.2,52.8,30.32,NW,309,6.0,6.0,74,0.00,CLR,FEW,0.00,WeatherDisplay:10.37,2013-03-01 19:42:00,
2013-03-01 11:48:00,61.8,53.1,30.32,NW,311,5.8,5.8,73,0.00,CLR,FEW,0.00,WeatherDisplay:10.37,2013-03-01 19:48:00,
2013-03-01 11:53:00,62.2,53.1,30.33,NW,319,6.9,6.9,72,0.00,CLR,FEW,0.00,WeatherDisplay:10.37,2013-03-01 19:53:00,
2013-03-01 11:58:00,62.4,52.9,30.31,WNW,284,6.9,6.9,71,0.00,CLR,FEW,0.00,WeatherDisplay:10.37,2013-03-01 19:58:00,
2013-03-01 12:03:00,62.5,52.6,30.31,WNW,288,5.8,5.8,70,0.00,CLR,FEW,0.00,WeatherDisplay:10.37,2013-03-01 20:03:00,
2013-03-01 12:09:00,62.9,52.6,30.31,NW,321,5.8,5.8,69,0.00,CLR,FEW,0.00,WeatherDisplay:10.37,2013-03-01 20:09:00,
2013-03-01 12:14:00,63.6,52.8,30.31,NW,321,2.3,2.3,68,0.00,CLR,FEW,0.00,WeatherDisplay:10.37,2013-03-01 20:14:00,
2013-03-01 12:19:00,64.1,52.5,30.31,WNW,285,6.9,6.9,66,0.00,CLR,FEW,0.00,WeatherDisplay:10.37,2013-03-01 20:19:00,
2013-03-01 12:24:00,64.1,52.1,30.30,WNW,285,5.8,5.8,65,0.00,CLR,FEW,0.00,WeatherDisplay:10.37,2013-03-01 20:24:00,
2013-03-01 12:29:00,64.5,52.0,30.29,West,281,6.0,6.0,64,0.00,CLR,FEW,0.00,WeatherDisplay:10.37,2013-03-01 20:29:00,
2013-03-01 12:35:00,64.5,51.6,30.31,West,281,3.5,3.5,63,0.00,CLR,FEW,0.00,WeatherDisplay:10.37,2013-03-01 20:35:00,
2013-03-01 12:40:00,64.9,52.0,30.28,WNW,288,6.0,6.0,63,0.00,CLR,FEW,0.00,WeatherDisplay:10.37,2013-03-01 20:40:00,
2013-03-01 12:45:00,65.1,52.6,30.28,NW,313,4.6,4.6,64,0.00,CLR,FEW,0.00,WeatherDisplay:10.37,2013-03-01 20:45:00,
2013-03-01 12:50:00,65.5,52.6,30.30,WNW,289,5.8,5.8,63,0.00,CLR,FEW,0.00,WeatherDisplay:10.37,2013-03-01 20:50:00,
2013-03-01 12:56:00,65.9,52.9,30.28,NW,305,8.1,8.1,63,0.00,CLR,FEW,0.00,WeatherDisplay:10.37,2013-03-01 20:56:00,
2013-03-01 13:01:00,66.3,53.8,30.27,NW,320,5.8,5.8,64,0.00,CLR,FEW,0.00,WeatherDisplay:10.37,2013-03-01 21:01:00,
2013-03-01 13:06:00,66.5,53.5,30.27,NW,318,8.1,8.1,63,0.00,CLR,FEW,0.00,WeatherDisplay:10.37,2013-03-01 21:06:00,
2013-03-01 13:11:00,66.6,53.6,30.28,NNW,334,6.9,6.9,63,0.00,CLR,FEW,0.00,WeatherDisplay:10.37,2013-03-01 21:11:00,
2013-03-01 13:17:00,66.6,53.6,30.27,NW,316,8.1,8.1,63,0.00,CLR,FEW,0.00,WeatherDisplay:10.37,2013-03-01 21:17:00,
2013-03-01 13:22:00,66.5,53.5,30.26,West,277,5.0,5.0,63,0.00,CLR,FEW,0.00,WeatherDisplay:10.37,2013-03-01 21:22:00,
2013-03-01 13:27:00,66.3,53.3,30.26,West,281,7.0,7.0,63,0.00,CLR,FEW,0.00,WeatherDisplay:10.37,2013-03-01 21:27:00,
2013-03-01 13:33:00,66.1,52.7,30.27,WNW,290,5.8,5.8,62,0.00,CLR,FEW,0.00,WeatherDisplay:10.37,2013-03-01 21:33:00,
2013-03-01 13:38:00,66.2,52.8,30.27,WNW,289,5.8,5.8,62,0.00,CLR,FEW,0.00,WeatherDisplay:10.37,2013-03-01 21:38:00,
2013-03-01 13:43:00,66.5,52.6,30.27,WNW,284,11.5,11.5,61,0.00,CLR,FEW,0.00,WeatherDisplay:10.37,2013-03-01 21:43:00,
2013-03-01 13:48:00,67.0,53.1,30.26,NW,313,7.0,7.0,61,0.00,CLR,FEW,0.00,WeatherDisplay:10.37,2013-03-01 21:48:00,
2013-03-01 13:54:00,67.3,52.9,30.26,NW,325,8.1,8.1,60,0.00,CLR,FEW,0.00,WeatherDisplay:10.37,2013-03-01 21:54:00,
2013-03-01 13:59:00,67.5,53.6,30.26,West,277,5.0,5.0,61,0.00,CLR,FEW,0.00,WeatherDisplay:10.37,2013-03-01 21:59:00,
2013-03-01 14:04:00,68.0,54.0,30.25,West,275,4.6,4.6,61,0.00,CLR,FEW,0.00,WeatherDisplay:10.37,2013-03-01 22:04:00,
2013-03-01 14:09:00,68.2,53.8,30.25,West,275,5.8,5.8,60,0.00,CLR,FEW,0.00,WeatherDisplay:10.37,2013-03-01 22:09:00,
2013-03-01 14:14:00,68.2,53.3,30.25,NNW,327,7.0,7.0,59,0.00,CLR,FEW,0.00,WeatherDisplay:10.37,2013-03-01 22:14:00,
2013-03-01 14:20:00,68.2,53.3,30.25,NNW,339,6.0,6.0,59,0.00,CLR,FEW,0.00,WeatherDisplay:10.37,2013-03-01 22:20:00,
2013-03-01 14:25:00,68.5,53.1,30.23,WNW,303,3.5,3.5,58,0.00,CLR,FEW,0.00,WeatherDisplay:10.37,2013-03-01 22:25:00,
2013-03-01 14:30:00,69.0,53.6,30.23,WNW,294,5.8,5.8,58,0.00,CLR,FEW,0.00,WeatherDisplay:10.37,2013-03-01 22:30:00,
2013-03-01 14:35:00,69.3,53.4,30.23,NNW,346,7.0,7.0,57,0.00,CLR,FEW,0.00,WeatherDisplay:10.37,2013-03-01 22:35:00,
2013-03-01 14:40:00,69.5,53.6,30.22,NNW,338,7.0,7.0,57,0.00,CLR,FEW,0.00,WeatherDisplay:10.37,2013-03-01 22:40:00,
2013-03-01 14:46:00,69.7,53.8,30.22,NW,311,5.8,5.8,57,0.00,CLR,FEW,0.00,WeatherDisplay:10.37,2013-03-01 22:46:00,
2013-03-01 14:51:00,69.8,53.4,30.22,NW,312,5.8,5.8,56,0.00,CLR,FEW,0.00,WeatherDisplay:10.37,2013-03-01 22:51:00,
2013-03-01 14:56:00,69.8,52.9,30.22,NNW,327,6.9,6.9,55,0.00,CLR,FEW,0.00,WeatherDisplay:10.37,2013-03-01 22:56:00,
2013-03-01 15:01:00,69.9,52.5,30.22,NNW,333,6.9,6.9,54,0.00,CLR,FEW,0.00,WeatherDisplay:10.37,2013-03-01 23:01:00,
2013-03-01 15:07:00,70.1,52.2,30.22,North,355,7.0,7.0,53,0.00,CLR,FEW,0.00,WeatherDisplay:10.37,2013-03-01 23:07:00,
2013-03-01 15:12:00,70.3,51.8,30.22,NW,313,5.8,5.8,52,0.00,CLR,FEW,0.00,WeatherDisplay:10.37,2013-03-01 23:12:00,
2013-03-01 15:17:00,70.4,51.9,30.23,WNW,302,4.0,4.0,52,0.00,CLR,FEW,0.00,WeatherDisplay:10.37,2013-03-01 23:17:00,
2013-03-01 15:22:00,70.5,52.0,30.22,West,274,6.0,6.0,52,0.00,CLR,FEW,0.00,WeatherDisplay:10.37,2013-03-01 23:22:00,
2013-03-01 15:27:00,70.7,52.2,30.22,North,360,6.9,6.9,52,0.00,CLR,FEW,0.00,WeatherDisplay:10.37,2013-03-01 23:27:00,
2013-03-01 15:33:00,70.8,51.8,30.22,NNE,21,6.0,6.0,51,0.00,CLR,FEW,0.00,WeatherDisplay:10.37,2013-03-01 23:33:00,
2013-03-01 15:38:00,70.8,51.8,30.21,NNE,13,6.9,6.9,51,0.00,CLR,FEW,0.00,WeatherDisplay:10.37,2013-03-01 23:38:00,
2013-03-01 15:43:00,71.0,52.0,30.21,West,259,6.9,6.9,51,0.00,CLR,FEW,0.00,WeatherDisplay:10.37,2013-03-01 23:43:00,
2013-03-01 15:48:00,71.1,52.0,30.21,NNW,332,6.0,6.0,51,0.00,CLR,FEW,0.00,WeatherDisplay:10.37,2013-03-01 23:48:00,
2013-03-01 15:54:00,71.2,52.1,30.21,North,355,8.1,8.1,51,0.00,CLR,FEW,0.00,WeatherDisplay:10.37,2013-03-01 23:54:00,
2013-03-01 15:59:00,71.3,52.2,30.23,North,355,4.6,4.6,51,0.00,CLR,FEW,0.00,WeatherDisplay:10.37,2013-03-01 23:59:00,
2013-03-01 16:04:00,71.5,52.4,30.21,North,355,7.0,7.0,51,0.00,CLR,FEW,0.00,WeatherDisplay:10.37,2013-03-02 00:04:00,
2013-03-01 16:09:00,71.4,52.3,30.20,North,11,8.1,8.1,51,0.00,CLR,FEW,0.00,WeatherDisplay:10.37,2013-03-02 00:09:00,
2013-03-01 16:15:00,71.3,52.2,30.21,NNW,346,7.0,7.0,51,0.00,CLR,FEW,0.00,WeatherDisplay:10.37,2013-03-02 00:15:00,
2013-03-01 16:20:00,71.2,52.1,30.20,NNW,329,7.0,7.0,51,0.00,CLR,FEW,0.00,WeatherDisplay:10.37,2013-03-02 00:20:00,
2013-03-01 16:25:00,71.2,52.1,30.20,North,351,5.8,5.8,51,0.00,CLR,FEW,0.00,WeatherDisplay:10.37,2013-03-02 00:25:00,
2013-03-01 16:30:00,71.1,52.0,30.20,NW,321,6.9,6.9,51,0.00,CLR,FEW,0.00,WeatherDisplay:10.37,2013-03-02 00:30:00,
2013-03-01 16:36:00,71.0,52.5,30.21,NW,306,7.0,7.0,52,0.00,CLR,FEW,0.00,WeatherDisplay:10.37,2013-03-02 00:36:00,
2013-03-01 16:41:00,70.9,52.4,30.19,NNW,329,7.0,7.0,52,0.00,CLR,FEW,0.00,WeatherDisplay:10.37,2013-03-02 00:41:00,
2013-03-01 16:46:00,70.9,52.4,30.19,NNW,344,9.2,9.2,52,0.00,CLR,FEW,0.00,WeatherDisplay:10.37,2013-03-02 00:46:00,
2013-03-01 16:51:00,70.7,52.2,30.19,NNW,338,9.2,9.2,52,0.00,CLR,FEW,0.00,WeatherDisplay:10.37,2013-03-02 00:51:00,
2013-03-01 16:57:00,70.6,52.1,30.19,NNW,342,5.8,5.8,52,0.00,CLR,FEW,0.00,WeatherDisplay:10.37,2013-03-02 00:57:00,
2013-03-01 17:02:00,70.6,52.1,30.19,NW,319,2.3,2.4,52,0.00,CLR,FEW,0.00,WeatherDisplay:10.37,2013-03-02 01:02:00,
2013-03-01 17:07:00,70.5,52.0,30.20,WNW,292,2.3,2.3,52,0.00,CLR,FEW,0.00,WeatherDisplay:10.37,2013-03-02 01:07:00,
2013-03-01 17:12:00,70.4,52.4,30.20,NW,316,6.0,6.0,53,0.00,CLR,FEW,0.00,WeatherDisplay:10.37,2013-03-02 01:12:00,
2013-03-01 17:18:00,70.2,51.7,30.20,NW,315,1.2,1.2,52,0.00,CLR,FEW,0.00,WeatherDisplay:10.37,2013-03-02 01:18:00,
2013-03-01 17:23:00,69.9,51.5,30.20,NW,316,2.0,2.0,52,0.00,CLR,FEW,0.00,WeatherDisplay:10.37,2013-03-02 01:23:00,
2013-03-01 17:28:00,69.7,51.8,30.20,NW,316,6.0,6.0,53,0.00,CLR,FEW,0.00,WeatherDisplay:10.37,2013-03-02 01:28:00,
2013-03-01 17:33:00,69.4,51.5,30.20,NW,316,5.0,5.0,53,0.00,CLR,FEW,0.00,WeatherDisplay:10.37,2013-03-02 01:33:00,
2013-03-01 17:38:00,69.2,51.3,30.20,NW,316,4.6,4.6,53,0.00,CLR,FEW,0.00,WeatherDisplay:10.37,2013-03-02 01:38:00,
2013-03-01 17:44:00,68.9,51.6,30.20,NW,316,2.3,2.3,54,0.00,CLR,FEW,0.00,WeatherDisplay:10.37,2013-03-02 01:44:00,
2013-03-01 17:49:00,68.6,51.8,30.20,NW,316,3.5,3.5,55,0.00,CLR,FEW,0.00,WeatherDisplay:10.37,2013-03-02 01:49:00,
2013-03-01 17:54:00,68.2,51.4,30.20,NW,304,9.0,9.0,55,0.00,CLR,FEW,0.00,WeatherDisplay:10.37,2013-03-02 01:54:00,
2013-03-01 17:59:00,67.7,50.9,30.20,NNW,338,6.9,6.9,55,0.00,CLR,FEW,0.00,WeatherDisplay:10.37,2013-03-02 01:59:00,
2013-03-01 18:04:00,67.2,51.0,30.20,NW,311,4.6,4.6,56,0.00,CLR,FEW,0.00,WeatherDisplay:10.37,2013-03-02 02:04:00,
2013-03-01 18:10:00,66.8,51.1,30.20,NNW,338,6.0,6.0,57,0.00,CLR,FEW,0.00,WeatherDisplay:10.37,2013-03-02 02:10:00,
2013-03-01 18:15:00,66.3,51.5,30.20,NW,306,5.8,5.8,59,0.00,CLR,FEW,0.00,WeatherDisplay:10.37,2013-03-02 02:15:00,
2013-03-01 18:20:00,65.9,51.2,30.21,NNW,333,6.9,6.9,59,0.00,CLR,FEW,0.00,WeatherDisplay:10.37,2013-03-02 02:20:00,
2013-03-01 18:25:00,65.5,51.2,30.21,NNW,342,6.0,6.0,60,0.00,CLR,FEW,0.00,WeatherDisplay:10.37,2013-03-02 02:25:00,
2013-03-01 18:30:00,65.1,51.3,30.21,NNW,342,6.9,6.9,61,0.00,CLR,FEW,0.00,WeatherDisplay:10.37,2013-03-02 02:30:00,
2013-03-01 18:36:00,64.7,51.4,30.21,North,351,5.0,5.0,62,0.00,CLR,FEW,0.00,WeatherDisplay:10.37,2013-03-02 02:36:00,
2013-03-01 18:41:00,64.3,51.4,30.21,NNW,331,6.9,6.9,63,0.00,CLR,FEW,0.00,WeatherDisplay:10.37,2013-03-02 02:41:00,
2013-03-01 18:46:00,63.9,51.1,30.21,NW,318,6.0,6.0,63,0.00,CLR,FEW,0.00,WeatherDisplay:10.37,2013-03-02 02:46:00,
2013-03-01 18:51:00,63.5,51.1,30.21,NW,310,5.8,5.8,64,0.00,CLR,FEW,0.00,WeatherDisplay:10.37,2013-03-02 02:51:00,
2013-03-01 18:57:00,63.3,51.3,30.21,NW,310,2.3,2.3,65,0.00,CLR,FEW,0.00,WeatherDisplay:10.37,2013-03-02 02:57:00,
2013-03-01 19:02:00,63.1,51.1,30.21,NW,310,3.5,3.5,65,0.00,CLR,FEW,0.00,WeatherDisplay:10.37,2013-03-02 03:02:00,
2013-03-01 19:07:00,62.9,51.0,30.22,NW,310,0.0,0.0,65,0.00,CLR,FEW,0.00,WeatherDisplay:10.37,2013-03-02 03:07:00,
2013-03-01 19:12:00,62.8,51.3,30.22,NW,310,0.0,0.0,66,0.00,CLR,FEW,0.00,WeatherDisplay:10.37,2013-03-02 03:12:00,
2013-03-01 19:18:00,62.6,51.1,30.21,NW,310,0.0,0.0,66,0.00,CLR,FEW,0.00,WeatherDisplay:10.37,2013-03-02 03:18:00,
2013-03-01 19:23:00,62.4,50.9,30.21,NW,310,0.0,0.0,66,0.00,CLR,FEW,0.00,WeatherDisplay:10.37,2013-03-02 03:23:00,
2013-03-01 19:28:00,62.2,50.7,30.21,NW,310,0.0,0.0,66,0.00,CLR,FEW,0.00,WeatherDisplay:10.37,2013-03-02 03:28:00,
2013-03-01 19:33:00,62.0,50.5,30.21,NW,310,0.0,0.0,66,0.00,CLR,FEW,0.00,WeatherDisplay:10.37,2013-03-02 03:33:00,
2013-03-01 19:38:00,61.9,50.4,30.22,NW,310,0.0,0.0,66,0.00,CLR,FEW,0.00,WeatherDisplay:10.37,2013-03-02 03:38:00,
2013-03-01 19:44:00,61.8,50.3,30.21,NW,310,1.0,1.0,66,0.00,CLR,FEW,0.00,WeatherDisplay:10.37,2013-03-02 03:44:00,
2013-03-01 19:49:00,61.6,50.5,30.22,NW,310,0.0,0.0,67,0.00,CLR,FEW,0.00,WeatherDisplay:10.37,2013-03-02 03:49:00,
2013-03-01 19:54:00,61.4,50.3,30.22,NW,310,0.0,0.0,67,0.00,CLR,FEW,0.00,WeatherDisplay:10.37,2013-03-02 03:54:00,
2013-03-01 19:59:00,61.3,50.2,30.22,NW,310,1.2,0.0,67,0.00,CLR,FEW,0.00,WeatherDisplay:10.37,2013-03-02 03:59:00,
2013-03-01 20:05:00,61.1,50.5,30.22,NW,310,0.0,0.0,68,0.00,CLR,FEW,0.00,WeatherDisplay:10.37,2013-03-02 04:05:00,
2013-03-01 20:10:00,61.0,50.4,30.22,NW,310,1.2,1.2,68,0.00,CLR,FEW,0.00,WeatherDisplay:10.37,2013-03-02 04:10:00,
2013-03-01 20:15:00,60.9,49.9,30.22,NW,310,1.2,1.2,67,0.00,CLR,FEW,0.00,WeatherDisplay:10.37,2013-03-02 04:15:00,
2013-03-01 20:20:00,60.8,49.8,30.24,NW,310,1.2,0.0,67,0.00,CLR,FEW,0.00,WeatherDisplay:10.37,2013-03-02 04:20:00,
2013-03-01 20:25:00,60.8,49.8,30.23,NW,310,0.0,0.0,67,0.00,CLR,FEW,0.00,WeatherDisplay:10.37,2013-03-02 04:25:00,
2013-03-01 20:30:00,60.8,49.8,30.23,NW,310,1.2,1.2,67,0.00,CLR,FEW,0.00,WeatherDisplay:10.37,2013-03-02 04:30:00,
2013-03-01 20:36:00,60.8,49.8,30.23,NW,310,2.3,2.3,67,0.00,CLR,FEW,0.00,WeatherDisplay:10.37,2013-03-02 04:36:00,
2013-03-01 20:41:00,60.6,49.6,30.23,NW,310,2.3,2.3,67,0.00,CLR,FEW,0.00,WeatherDisplay:10.37,2013-03-02 04:41:00,
2013-03-01 20:46:00,60.5,49.9,30.25,NW,310,1.2,1.2,68,0.00,CLR,FEW,0.00,WeatherDisplay:10.37,2013-03-02 04:46:00,
2013-03-01 20:51:00,60.4,49.8,30.23,NW,310,2.3,2.3,68,0.00,CLR,FEW,0.00,WeatherDisplay:10.37,2013-03-02 04:51:00,
2013-03-01 20:56:00,60.2,50.0,30.23,NW,310,1.2,1.2,69,0.00,CLR,FEW,0.00,WeatherDisplay:10.37,2013-03-02 04:56:00,
2013-03-01 21:00:00,60.0,49.8,30.23,NW,310,0.0,0.0,69,0.00,CLR,FEW,0.00,WeatherDisplay:10.37,2013-03-02 05:00:00,
2013-03-01 21:01:00,60.0,49.8,30.23,NW,310,0.0,0.0,69,0.00,CLR,FEW,0.00,WeatherDisplay:10.37,2013-03-02 05:01:00,
2013-03-01 21:06:00,59.7,49.9,30.23,NW,310,0.0,0.0,70,0.00,CLR,FEW,0.00,WeatherDisplay:10.37,2013-03-02 05:06:00,
2013-03-01 21:07:00,59.7,49.9,30.23,NW,310,0.0,0.0,70,0.00,CLR,FEW,0.00,WeatherDisplay:10.37,2013-03-02 05:07:00,
2013-03-01 21:12:00,59.6,49.8,30.24,NW,310,0.0,0.0,70,0.00,CLR,FEW,0.00,WeatherDisplay:10.37,2013-03-02 05:12:00,
2013-03-01 21:17:00,59.4,49.6,30.23,NW,310,0.0,0.0,70,0.00,CLR,FEW,0.00,WeatherDisplay:10.37,2013-03-02 05:17:00,
2013-03-01 21:22:00,59.2,49.4,30.22,NW,310,0.0,0.0,70,0.00,CLR,FEW,0.00,WeatherDisplay:10.37,2013-03-02 05:22:00,
2013-03-01 21:28:00,59.0,49.6,30.22,NW,310,0.0,0.0,71,0.00,CLR,FEW,0.00,WeatherDisplay:10.37,2013-03-02 05:28:00,
2013-03-01 21:33:00,58.9,49.5,30.24,NW,310,0.0,0.0,71,0.00,CLR,FEW,0.00,WeatherDisplay:10.37,2013-03-02 05:33:00,
2013-03-01 21:38:00,58.8,49.4,30.22,NW,310,0.0,0.0,71,0.00,CLR,FEW,0.00,WeatherDisplay:10.37,2013-03-02 05:38:00,
2013-03-01 21:43:00,58.6,49.6,30.22,NW,310,0.0,0.0,72,0.00,CLR,FEW,0.00,WeatherDisplay:10.37,2013-03-02 05:43:00,
2013-03-01 21:48:00,58.4,49.8,30.22,NW,310,0.0,0.0,73,0.00,CLR,FEW,0.00,WeatherDisplay:10.37,2013-03-02 05:48:00,
2013-03-01 21:53:00,58.2,49.6,30.24,NW,310,0.0,0.0,73,0.00,CLR,FEW,0.00,WeatherDisplay:10.37,2013-03-02 05:53:00,
2013-03-01 21:58:00,58.0,49.8,30.22,NW,310,0.0,0.0,74,0.00,CLR,FEW,0.00,WeatherDisplay:10.37,2013-03-02 05:58:00,
2013-03-01 22:04:00,57.8,49.6,30.22,NW,310,0.0,0.0,74,0.00,CLR,FEW,0.00,WeatherDisplay:10.37,2013-03-02 06:04:00,
2013-03-01 22:09:00,57.6,49.7,30.24,NW,310,0.0,0.0,75,0.00,CLR,FEW,0.00,WeatherDisplay:10.37,2013-03-02 06:09:00,
2013-03-01 22:14:00,57.5,49.6,30.22,NW,310,0.0,0.0,75,0.00,CLR,FEW,0.00,WeatherDisplay:10.37,2013-03-02 06:14:00,
2013-03-01 22:19:00,57.3,49.4,30.22,NW,310,0.0,0.0,75,0.00,CLR,FEW,0.00,WeatherDisplay:10.37,2013-03-02 06:19:00,
2013-03-01 22:24:00,57.1,49.6,30.23,NW,310,1.2,0.0,76,0.00,CLR,FEW,0.00,WeatherDisplay:10.37,2013-03-02 06:24:00,
2013-03-01 22:29:00,56.9,49.4,30.24,NW,310,0.0,0.0,76,0.00,CLR,FEW,0.00,WeatherDisplay:10.37,2013-03-02 06:29:00,
2013-03-01 22:35:00,56.7,49.6,30.22,NW,310,0.0,0.0,77,0.00,CLR,FEW,0.00,WeatherDisplay:10.37,2013-03-02 06:35:00,
2013-03-01 22:40:00,56.6,49.5,30.23,NW,310,0.0,0.0,77,0.00,CLR,FEW,0.00,WeatherDisplay:10.37,2013-03-02 06:40:00,
2013-03-01 22:45:00,56.4,49.3,30.24,NW,310,0.0,0.0,77,0.00,CLR,FEW,0.00,WeatherDisplay:10.37,2013-03-02 06:45:00,
2013-03-01 22:50:00,56.3,49.2,30.22,NW,310,0.0,0.0,77,0.00,CLR,FEW,0.00,WeatherDisplay:10.37,2013-03-02 06:50:00,
2013-03-01 22:56:00,56.2,49.4,30.21,NW,310,0.0,0.0,78,0.00,CLR,FEW,0.00,WeatherDisplay:10.37,2013-03-02 06:56:00,
2013-03-01 23:01:00,56.1,49.3,30.23,NW,310,0.0,0.0,78,0.00,CLR,FEW,0.00,WeatherDisplay:10.37,2013-03-02 07:01:00,
2013-03-01 23:06:00,56.0,48.9,30.21,NW,310,0.0,0.0,77,0.00,CLR,FEW,0.00,WeatherDisplay:10.37,2013-03-02 07:06:00,
2013-03-01 23:11:00,55.9,49.1,30.21,NW,310,0.0,0.0,78,0.00,CLR,FEW,0.00,WeatherDisplay:10.37,2013-03-02 07:11:00,
2013-03-01 23:17:00,55.8,49.0,30.21,NW,310,0.0,0.0,78,0.00,CLR,FEW,0.00,WeatherDisplay:10.37,2013-03-02 07:17:00,
2013-03-01 23:22:00,55.6,48.8,30.20,NW,310,0.0,0.0,78,0.00,CLR,FEW,0.00,WeatherDisplay:10.37,2013-03-02 07:22:00,
2013-03-01 23:27:00,55.5,48.8,30.22,NW,310,0.0,0.0,78,0.00,CLR,FEW,0.00,WeatherDisplay:10.37,2013-03-02 07:27:00,
2013-03-01 23:32:00,55.3,48.6,30.20,NW,310,0.0,0.0,78,0.00,CLR,FEW,0.00,WeatherDisplay:10.37,2013-03-02 07:32:00,
2013-03-01 23:37:00,55.2,48.8,30.21,NW,310,0.0,0.0,79,0.00,CLR,FEW,0.00,WeatherDisplay:10.37,2013-03-02 07:37:00,
2013-03-01 23:42:00,55.0,48.6,30.21,NW,310,0.0,0.0,79,0.00,CLR,FEW,0.00,WeatherDisplay:10.37,2013-03-02 07:42:00,
2013-03-01 23:48:00,54.8,48.7,30.22,NW,310,0.0,0.0,80,0.00,CLR,FEW,0.00,WeatherDisplay:10.37,2013-03-02 07:48:00,
2013-03-01 23:53:00,54.5,48.5,30.20,NW,310,0.0,0.0,80,0.00,CLR,FEW,0.00,WeatherDisplay:10.37,2013-03-02 07:53:00,
2013-03-01 23:58:00,54.3,48.3,30.22,NW,310,0.0,0.0,80,0.00,CLR,FEW,0.00,WeatherDisplay:10.37,2013-03-02 07:58:00,